Location: Agendoh
(31.0664°N, 8.9343°W)
Time: 08:13:28
(UTC+00:00)

Meteor 1-31 Rocket - Pass Details

Date: 06 December 2021
Orbit: 519 x 544 km, 97.7° (Epoch: 24 January)

Event Time Altitude Azimuth Distance (km) Brightness Sun altitude
Rises 06:18:57 0° 357° (N) 2,701 6.1 -13.0°
Reaches altitude 10° 06:21:17 10° 346° (NNW) 1,808 5.1 -12.5°
Maximum altitude 06:24:37 28° 287° (WNW) 1,048 3.6 -11.8°
Drops below altitude 10° 06:27:58 10° 228° (SW) 1,805 5.2 -11.2°
Sets 06:30:17 0° 216° (SW) 2,694 6.2 -10.7°
